Flag for Sweden Weather past 2 weeks in Norrköping, Sweden

Now
39 °F

Mostly cloudy.


Feels Like: 37 °F
Forecast: 34 / 46 °F
Wind: 3 mph from East

Location: Norrkoping Airport

Current Time: Mar 30, 2015 at 5:06:57 AM

Latest Report: Mar 30, 2015 at 4:20 AM


Visibility: N/A

Pressure: 28.94 "Hg

Humidity: 100%

Dew point: 39 °F

Location of NorrköpingLocation

Historic Weather in Norrköping — Graph

°F

Norrköping temperature yesterday

Maximum temperature yesterday: 45 °F (at 5:50 PM)
Minimum temperature yesterday: 36 °F (at 12:20 AM)
Average temperature yesterday: 39 °F

Past Weeks' High & Low Weather Summary

 TemperatureHumidityPressure
High55 °F (Mar 18, 1:20 PM)100% (Mar 15, 9:20 PM)30.86 "Hg (Mar 15, 9:20 PM)
Low21 °F (Mar 22, 12:20 AM)26% (Mar 18, 2:50 PM)28.97 "Hg (Mar 30, 2:50 AM)
Average37 °F81%30.12 "Hg
* Reported Mar 15 2:20 AM — Mar 30 3:20 AM, Norrköping, Weather by CustomWeather, © 2015

Note: Actual official high and low records may vary slightly from our data, if they occured in-between our weather recording intervals... More about our weather records

Advertising

Norrköping weather history for previous 24 hours

 ConditionsComfort  
Time TempWeatherWind HumidityBarometerVisibility
3:20 AM
Mon, Mar 30
41 °FLow clouds.2 mph100%28.97 "HgN/A
2:50 AM39 °FOvercast.2 mph100%28.97 "HgN/A
2:20 AM39 °FMostly cloudy.1 mph100%29.00 "HgN/A
1:50 AM41 °FLight rain. Overcast.1 mph100%29.00 "HgN/A
1:20 AM41 °FRain. Overcast.5 mph100%29.00 "Hg4 mi
12:50 AM41 °FLight rain. Overcast.3 mph100%29.00 "Hg4 mi
12:20 AM41 °FOvercast.5 mph100%29.03 "HgN/A
11:50 PM
Sun, Mar 29
41 °FDrizzle. Overcast.6 mph100%29.03 "HgN/A
11:20 PM41 °FDrizzle. Overcast.6 mph100%29.03 "HgN/A
10:50 PM41 °FDrizzle. Overcast.6 mph100%29.03 "HgN/A
10:20 PM43 °FOvercast.6 mph93%29.06 "HgN/A
9:50 PM43 °FPassing clouds.7 mph93%29.06 "HgN/A
9:20 PM43 °FPartly cloudy.6 mph93%29.06 "HgN/A
8:50 PM43 °FPartly cloudy.8 mph93%29.09 "HgN/A
8:20 PM43 °FBroken clouds.7 mph93%29.09 "HgN/A
7:50 PM43 °FPartly sunny.6 mph100%29.09 "HgN/A
7:20 PM43 °FPartly sunny.5 mph100%29.09 "HgN/A
6:50 PM45 °FBroken clouds.6 mph93%29.09 "HgN/A
6:20 PM45 °FScattered clouds.6 mph93%29.09 "HgN/A
5:50 PM45 °FBroken clouds.6 mph87%29.12 "HgN/A
5:20 PM43 °FBroken clouds.7 mph93%29.12 "HgN/A
4:50 PM41 °FDrizzle. Partly sunny.7 mph100%29.12 "HgN/A
4:20 PM41 °FDrizzle. Partly sunny.6 mph93%29.12 "HgN/A
3:50 PM39 °FLight rain. Broken clouds.7 mph100%29.15 "HgN/A
3:20 PM39 °FLight rain. Partly sunny.10 mph100%29.15 "Hg6 mi
2:50 PM39 °FLight rain. Partly sunny.12 mph93%29.18 "Hg6 mi
2:20 PM39 °FLight rain. Partly sunny.12 mph93%29.18 "Hg6 mi
1:50 PM39 °FLight rain. Partly sunny.12 mph93%29.21 "HgN/A
1:20 PM39 °FLight rain. Partly sunny.15 mph93%29.24 "Hg6 mi
12:50 PM39 °FLight rain. Partly sunny.15 mph93%29.24 "Hg6 mi
12:20 PM39 °FLight rain. Partly sunny.16 mph93%29.27 "Hg5 mi
11:50 AM39 °FLight rain. Low clouds.14 mph93%29.27 "Hg5 mi
11:20 AM39 °FRain. Low clouds.14 mph93%29.30 "Hg4 mi
10:50 AM39 °FLight rain. Low clouds.16 mph93%29.30 "Hg5 mi
10:20 AM39 °FRain. Overcast.16 mph93%29.33 "Hg5 mi
9:50 AM39 °FLight rain. Mostly cloudy.14 mph93%29.36 "Hg5 mi
9:20 AM39 °FLight rain. Low clouds.15 mph93%29.39 "Hg5 mi
8:50 AM39 °FLight rain. Overcast.14 mph93%29.39 "Hg4 mi
8:20 AM37 °FLight rain. Mostly cloudy.14 mph93%29.42 "Hg4 mi
7:50 AM37 °FLight rain. Mostly cloudy.15 mph93%29.42 "Hg3 mi
7:20 AM37 °FLight rain. Low clouds.15 mph93%29.45 "Hg4 mi
6:50 AM36 °FLight rain. Light fog.14 mph100%29.45 "Hg4 mi
6:20 AM36 °FLight rain. Partly cloudy.14 mph93%29.47 "Hg3 mi
5:50 AM36 °FLight rain. Fog.12 mph93%29.50 "Hg3 mi
5:20 AM36 °FLight rain. Light fog.13 mph93%29.53 "Hg5 mi
Weather by CustomWeather, © 2015

See weather overviewHow to use our weather pages